GW7179 Weather Reports


Display with metric or nautical units.
time (UTC)temp
F
wind
direction
speed
MPH
gust
MPH
rain 1hr
in
rain 24hr
in
rain mn
in
humidity
%
barometer
mb
20260505213432 88 284 7.0 8.0 0.00 0.00 0.00 47 987.1
20260505212931 88 272 4.0 7.0 0.00 0.00 0.00 48 987.1
20260505212431 88 268 4.0 6.0 0.00 0.00 0.00 47 986.8
20260505211931 88 294 4.0 6.0 0.00 0.00 0.00 48 987.1
20260505211431 88 285 4.0 9.0 0.00 0.00 0.00 46 987.1
20260505210931 88 306 7.0 11.0 0.00 0.00 0.00 47 987.5
20260505210432 88 270 6.0 11.0 0.00 0.00 0.00 47 987.5
20260505205932 89 260 9.0 11.0 0.00 0.00 0.00 48 987.5
20260505205431 88 258 6.0 9.0 0.00 0.00 0.00 48 987.5
20260505204931 88 265 5.0 13.0 0.00 0.00 0.00 46 987.5
20260505204432 89 285 9.0 10.0 0.00 0.00 0.00 48 987.1
20260505203933 88 275 3.0 6.0 0.00 0.00 0.00 49 987.5
20260505203431 88 282 9.0 9.0 0.00 0.00 0.00 48 987.8
20260505202932 88 273 9.0 10.0 0.00 0.00 0.00 50 987.5
20260505202431 88 260 7.0 10.0 0.00 0.00 0.00 50 987.5
20260505201931 88 281 9.0 12.0 0.00 0.00 0.00 52 987.8
20260505201431 87 267 4.0 9.0 0.00 0.00 0.00 53 987.8
20260505200931 88 262 5.0 10.0 0.00 0.00 0.00 50 987.8
20260505200431 87 247 3.0 5.0 0.00 0.00 0.00 53 987.8
20260505195931 87 271 8.0 9.0 0.00 0.00 0.00 52 988.1
20260505195431 87 287 8.0 9.0 0.00 0.00 0.00 53 987.8
20260505194932 87 248 3.0 6.0 0.00 0.00 0.00 54 987.8
20260505194432 87 286 4.0 7.0 0.00 0.00 0.00 55 987.8
20260505193931 86 203 3.0 5.0 0.00 0.00 0.00 56 988.1
20260505193433 86 258 3.0 7.0 0.00 0.00 0.00 57 988.1
20260505192931 86 245 5.0 6.0 0.00 0.00 0.00 58 988.1
20260505192431 85 218 4.0 7.0 0.00 0.00 0.00 58 988.1
20260505191932 85 248 4.0 5.0 0.00 0.00 0.00 58 988.1
20260505191431 84 219 3.0 5.0 0.00 0.00 0.00 58 988.1
20260505190931 84 246 5.0 7.0 0.00 0.00 0.00 60 988.1
20260505190431 84 178 5.0 8.0 0.00 0.00 0.00 59 988.1
20260505185931 84 222 5.0 6.0 0.00 0.00 0.00 60 988.1
20260505185432 84 260 3.0 6.0 0.00 0.00 0.00 60 988.1
20260505184932 84 237 3.0 7.0 0.00 0.00 0.00 60 988.1
20260505184431 83 262 2.0 9.0 0.00 0.00 0.00 62 988.1
20260505183931 83 214 4.0 8.0 0.00 0.00 0.00 62 988.1
20260505183431 82 284 2.0 7.0 0.00 0.00 0.00 63 988.1
20260505182932 82 212 6.0 8.0 0.00 0.00 0.00 62 988.5
20260505182431 82 238 3.0 7.0 0.00 0.00 0.00 62 988.1
20260505181931 82 263 2.0 9.0 0.00 0.00 0.00 62 988.1
20260505181434 82 157 4.0 8.0 0.00 0.00 0.00 63 988.1
20260505180932 82 237 3.0 5.0 0.00 0.00 0.00 64 988.1
20260505180432 82 233 3.0 5.0 0.00 0.00 0.00 63 988.5
20260505175932 82 240 3.0 5.0 0.00 0.00 0.00 64 988.1
20260505175431 82 264 3.0 6.0 0.00 0.00 0.00 64 988.1
20260505174931 82 241 1.0 7.0 0.00 0.00 0.00 63 988.1
20260505174431 82 236 4.0 9.0 0.00 0.00 0.00 63 988.1
20260505173931 82 213 4.0 10.0 0.00 0.00 0.00 63 988.1
20260505173432 81 192 1.0 7.0 0.00 0.00 0.00 64 988.1
20260505172932 81 256 4.0 7.0 0.00 0.00 0.00 64 988.1
20260505172431 81 195 5.0 6.0 0.00 0.00 0.00 65 988.5
20260505171932 81 257 4.0 8.0 0.00 0.00 0.00 64 988.1
20260505171432 81 221 3.0 8.0 0.00 0.00 0.00 64 988.1
20260505170931 80 215 5.0 5.0 0.00 0.00 0.00 66 988.5
20260505170432 80 269 2.0 5.0 0.00 0.00 0.00 66 988.1
20260505165931 80 238 4.0 8.0 0.00 0.00 0.00 67 988.5
20260505165432 79 209 3.0 6.0 0.00 0.00 0.00 68 988.5
20260505164932 79 210 3.0 8.0 0.00 0.00 0.00 68 988.5
20260505164431 79 236 2.0 8.0 0.00 0.00 0.00 68 988.5
20260505163932 79 227 4.0 7.0 0.00 0.00 0.00 68 988.5
20260505163431 78 231 4.0 4.0 0.00 0.00 0.00 70 988.1
20260505162931 78 212 4.0 10.0 0.00 0.00 0.00 69 988.1
20260505162433 79 190 4.0 9.0 0.00 0.00 0.00 69 988.1
20260505161932 79 160 4.0 10.0 0.00 0.00 0.00 68 988.1
20260505161431 78 271 1.0 7.0 0.00 0.00 0.00 69 987.8
20260505160931 78 220 5.0 10.0 0.00 0.00 0.00 70 988.1
20260505160431 78 272 2.0 8.0 0.00 0.00 0.00 70 988.1
20260505152931 76 137 2.0 7.0 0.00 0.00 0.00 74 988.1
20260505152431 75 211 3.0 5.0 0.00 0.00 0.00 75 988.1
20260505151932 76 215 3.0 7.0 0.00 0.00 0.00 75 988.1
20260505151432 76 236 4.0 7.0 0.00 0.00 0.00 74 988.1
20260505150931 76 197 2.0 9.0 0.00 0.00 0.00 73 987.8
20260505150432 75 207 5.0 5.0 0.00 0.00 0.00 76 988.1
20260505140432 73 334 1.0 13.0 0.00 0.00 0.00 81 987.8
20260505124931 71 214 3.0 15.0 0.00 0.00 0.00 85 987.8
20260505124434 71 127 3.0 7.0 0.00 0.00 0.00 85 987.5
20260505123932 71 151 4.0 7.0 0.00 0.00 0.00 85 987.5
20260505123431 71 151 4.0 7.0 0.00 0.00 0.00 85 987.5
20260505122931 71 201 5.0 9.0 0.00 0.00 0.00 85 987.5
20260505122432 71 204 7.0 10.0 0.00 0.00 0.00 85 987.1
20260505121932 71 163 2.0 7.0 0.00 0.00 0.00 85 987.5
20260505121431 71 172 3.0 7.0 0.00 0.00 0.00 85 987.1
20260505120934 71 229 3.0 7.0 0.00 0.00 0.00 85 987.1
20260505120432 71 148 1.0 6.0 0.00 0.00 0.00 85 987.1
20260505115932 71 178 8.0 9.0 0.00 0.00 0.00 85 987.1
20260505115432 71 175 5.0 5.0 0.00 0.00 0.00 85 987.1
20260505114933 71 201 5.0 11.0 0.00 0.00 0.00 85 987.1
20260505114431 71 176 3.0 5.0 0.00 0.00 0.00 85 987.1
20260505113445 71 144 3.0 9.0 0.00 0.00 0.00 85 986.8
20260505112931 71 162 4.0 7.0 0.00 0.00 0.00 84 986.8
20260505112431 71 162 5.0 9.0 0.00 0.00 0.00 85 987.1
20260505111932 71 186 0.0 6.0 0.00 0.00 0.00 84 986.8
20260505111431 71 189 3.0 8.0 0.00 0.00 0.00 85 986.8
20260505110931 71 146 3.0 5.0 0.00 0.00 0.00 85 986.8
20260505110431 71 258 2.0 6.0 0.00 0.00 0.00 85 986.8
20260505101931 71 141 8.0 13.0 0.00 0.00 0.00 83 986.8
20260505101431 71 183 5.0 9.0 0.00 0.00 0.00 83 986.8
20260505100931 71 199 3.0 10.0 0.00 0.00 0.00 83 986.8
20260505100433 71 225 3.0 13.0 0.00 0.00 0.00 83 986.8
20260505095931 71 208 4.0 5.0 0.00 0.00 0.00 83 987.1
20260505095434 71 205 2.0 11.0 0.00 0.00 0.00 83 987.1
20260505094932 71 176 3.0 7.0 0.00 0.00 0.00 83 986.8
20260505094432 71 212 8.0 14.0 0.00 0.00 0.00 82 986.8
20260505093931 71 177 5.0 11.0 0.00 0.00 0.00 82 986.8
20260505093433 72 192 3.0 9.0 0.00 0.00 0.00 82 987.1
20260505092933 72 173 5.0 7.0 0.00 0.00 0.00 82 987.1
20260505092432 72 207 2.0 10.0 0.00 0.00 0.00 81 987.1
20260505091448 72 215 5.0 8.0 0.00 0.00 0.00 81 987.1
20260505090933 72 137 4.0 11.0 0.00 0.00 0.00 81 987.1
20260505090437 72 236 2.0 12.0 0.00 0.00 0.00 81 987.5
20260505085931 72 187 3.0 9.0 0.00 0.00 0.00 81 987.5
20260505085432 72 153 2.0 7.0 0.00 0.00 0.00 80 987.5
20260505084933 72 187 5.0 11.0 0.00 0.00 0.00 80 987.1
20260505083943 72 207 5.0 7.0 0.00 0.00 0.00 79 987.5
20260505083431 72 173 2.0 9.0 0.00 0.00 0.00 79 987.5
20260505082932 72 151 9.0 10.0 0.00 0.00 0.00 79 987.5
20260505082431 72 214 3.0 11.0 0.00 0.00 0.00 79 987.5
20260505081931 72 180 4.0 8.0 0.00 0.00 0.00 79 987.5
20260505081432 72 149 4.0 6.0 0.00 0.00 0.00 79 987.5
20260505080933 73 201 3.0 7.0 0.00 0.00 0.00 78 987.5
20260505080432 73 170 5.0 8.0 0.00 0.00 0.00 78 987.5
20260505075934 73 169 7.0 7.0 0.00 0.00 0.00 78 987.5
20260505075432 73 165 4.0 7.0 0.00 0.00 0.00 77 987.8
20260505074933 73 187 2.0 7.0 0.00 0.00 0.00 77 987.5
20260505074431 73 146 0.0 8.0 0.00 0.00 0.00 77 987.5
20260505073932 73 183 3.0 7.0 0.00 0.00 0.00 76 987.8
20260505073431 73 152 7.0 9.0 0.00 0.00 0.00 76 987.8
20260505072932 73 137 3.0 7.0 0.00 0.00 0.00 75 988.1
20260505072431 73 170 3.0 10.0 0.00 0.00 0.00 75 988.1
20260505071932 73 133 9.0 9.0 0.00 0.00 0.00 75 988.1
20260505071431 73 173 4.0 7.0 0.00 0.00 0.00 75 988.1
20260505070933 73 173 3.0 8.0 0.00 0.00 0.00 75 988.1
20260505070432 73 194 4.0 6.0 0.00 0.00 0.00 74 988.1
20260505065931 73 163 5.0 6.0 0.00 0.00 0.00 74 988.5
20260505065431 74 162 3.0 6.0 0.00 0.00 0.00 73 988.5
20260505064932 74 176 3.0 8.0 0.00 0.00 0.00 73 988.5
20260505064431 74 177 3.0 7.0 0.00 0.00 0.00 73 988.5
20260505063933 74 204 3.0 6.0 0.00 0.00 0.00 72 988.5
20260505063431 74 175 2.0 7.0 0.00 0.00 0.00 72 988.8
20260505062932 74 162 2.0 9.0 0.00 0.00 0.00 71 988.8
20260505062431 74 164 4.0 8.0 0.00 0.00 0.00 71 988.8
20260505061931 74 172 6.0 9.0 0.00 0.00 0.00 70 988.5
20260505061431 75 179 4.0 8.0 0.00 0.00 0.00 70 988.5
20260505060931 75 168 4.0 9.0 0.00 0.00 0.00 69 988.8
20260505060431 75 196 3.0 11.0 0.00 0.00 0.00 69 988.5
20260505055932 75 224 3.0 8.0 0.00 0.00 0.00 69 988.8
20260505055432 75 194 6.0 10.0 0.00 0.00 0.00 68 988.8
20260505054932 75 133 5.0 7.0 0.00 0.00 0.00 69 988.5
20260505054431 75 199 2.0 9.0 0.00 0.00 0.00 69 988.5
20260505053931 75 156 8.0 9.0 0.00 0.00 0.00 69 988.5
20260505053431 75 183 4.0 11.0 0.00 0.00 0.00 69 988.5
20260505052932 75 185 4.0 8.0 0.00 0.00 0.00 69 988.5
20260505052431 75 147 2.0 9.0 0.00 0.00 0.00 69 988.5
20260505051931 75 168 2.0 11.0 0.00 0.00 0.00 69 988.5
20260505051431 75 194 5.0 9.0 0.00 0.00 0.00 69 988.5
20260505050931 75 142 6.0 7.0 0.00 0.00 0.00 69 988.8
20260505050431 75 168 2.0 8.0 0.00 0.00 0.00 69 988.8
20260505041432 75 192 4.0 12.0 0.00 0.00 0.00 68 988.8
20260505040931 75 176 6.0 8.0 0.00 0.00 0.00 68 988.8
20260505040432 75 185 5.0 10.0 0.00 0.00 0.00 68 989.2
20260505035932 75 185 5.0 11.0 0.00 0.00 0.00 68 989.2
20260505035432 76 148 5.0 15.0 0.00 0.00 0.00 67 989.2
20260505034931 76 142 7.0 14.0 0.00 0.00 0.00 67 989.2
20260505034432 76 179 4.0 10.0 0.00 0.00 0.00 67 989.2
20260505033932 76 184 4.0 11.0 0.00 0.00 0.00 67 989.2
20260505033431 76 148 4.0 11.0 0.00 0.00 0.00 67 989.2
20260505032932 76 182 5.0 11.0 0.00 0.00 0.00 67 988.8
20260505032432 76 195 10.0 20.0 0.00 0.00 0.00 66 988.8
20260505031931 76 195 11.0 12.0 0.00 0.00 0.00 67 988.8
20260505031431 76 183 3.0 15.0 0.00 0.00 0.00 67 988.8
20260505030931 76 157 9.0 11.0 0.00 0.00 0.00 67 989.2
20260505030432 76 169 3.0 13.0 0.00 0.00 0.00 66 989.2
20260505025931 76 139 6.0 12.0 0.00 0.00 0.00 66 988.8
20260505025432 76 148 8.0 12.0 0.00 0.00 0.00 66 988.8
20260505024931 76 184 4.0 9.0 0.00 0.00 0.00 66 989.2
20260505024434 76 165 5.0 15.0 0.00 0.00 0.00 66 989.2
20260505023931 76 165 5.0 11.0 0.00 0.00 0.00 66 989.2
20260505023431 76 196 4.0 10.0 0.00 0.00 0.00 65 988.8
20260505022932 76 194 4.0 8.0 0.00 0.00 0.00 65 989.2
20260505022434 76 145 5.0 11.0 0.00 0.00 0.00 65 989.2
20260505021932 76 192 5.0 11.0 0.00 0.00 0.00 65 988.8
20260505021433 76 146 5.0 8.0 0.00 0.00 0.00 65 988.8
20260505020931 76 170 4.0 12.0 0.00 0.00 0.00 65 988.8
20260505020431 76 168 5.0 11.0 0.00 0.00 0.00 65 988.8
20260505015931 76 200 5.0 7.0 0.00 0.00 0.00 65 988.8
20260505015431 77 141 5.0 10.0 0.00 0.00 0.00 64 988.8
20260505014931 76 191 6.0 10.0 0.00 0.00 0.00 64 988.8
20260505014431 77 159 5.0 10.0 0.00 0.00 0.00 64 988.8
20260505013932 76 146 5.0 11.0 0.00 0.00 0.00 65 988.8
20260505013432 76 182 7.0 10.0 0.00 0.00 0.00 64 988.8
20260505012932 77 155 3.0 11.0 0.00 0.00 0.00 64 988.8
20260505012431 77 149 8.0 12.0 0.00 0.00 0.00 64 988.8
20260505011931 77 165 7.0 11.0 0.00 0.00 0.00 64 988.8
20260505011431 77 166 4.0 13.0 0.00 0.00 0.00 63 989.2
20260505010931 77 154 3.0 13.0 0.00 0.00 0.00 63 988.8
20260505010431 77 185 7.0 13.0 0.00 0.00 0.00 63 989.2
20260505005932 77 176 3.0 10.0 0.00 0.00 0.00 63 989.2
20260505005431 77 186 5.0 10.0 0.00 0.00 0.00 63 989.2
20260505004931 77 144 10.0 11.0 0.00 0.00 0.00 63 988.8
20260505004431 77 212 5.0 10.0 0.00 0.00 0.00 62 988.8
20260505003931 77 169 7.0 15.0 0.00 0.00 0.00 62 988.8
20260505003432 78 135 6.0 11.0 0.00 0.00 0.00 61 988.8
20260505002931 78 200 11.0 15.0 0.00 0.00 0.00 62 989.2
20260505002431 78 150 3.0 17.0 0.00 0.00 0.00 60 989.2
20260505001932 78 193 8.0 21.0 0.00 0.00 0.00 60 988.8
20260505001431 78 225 3.0 8.0 0.00 0.00 0.00 61 989.2
20260505000931 78 178 5.0 17.0 0.00 0.00 0.00 61 989.2
20260505000431 78 187 5.0 12.0 0.00 0.00 0.00 61 989.2
20260504235933 78 160 6.0 12.0 0.00 0.00 0.00 60 989.5
20260504235431 78 173 10.0 15.0 0.00 0.00 0.00 60 989.2
20260504234931 78 192 5.0 15.0 0.00 0.00 0.00 60 989.2
20260504234432 78 162 6.0 17.0 0.00 0.00 0.00 60 989.2
20260504233932 78 184 10.0 16.0 0.00 0.00 0.00 59 989.5
20260504233432 78 164 7.0 11.0 0.00 0.00 0.00 59 989.5
20260504232932 78 151 5.0 11.0 0.00 0.00 0.00 59 989.5
20260504232431 78 188 7.0 12.0 0.00 0.00 0.00 59 989.5
20260504231932 79 179 7.0 15.0 0.00 0.00 0.00 59 989.5
20260504231431 79 182 7.0 14.0 0.00 0.00 0.00 59 989.5
20260504230931 79 183 7.0 12.0 0.00 0.00 0.00 59 989.5
20260504230432 79 170 4.0 17.0 0.00 0.00 0.00 58 989.5
20260504225931 79 183 7.0 13.0 0.00 0.00 0.00 58 989.8
20260504225431 80 213 3.0 9.0 0.00 0.00 0.00 58 989.8
20260504224932 80 184 8.0 18.0 0.00 0.00 0.00 58 989.8
20260504224431 80 164 9.0 9.0 0.00 0.00 0.00 56 989.8
20260504223931 80 198 4.0 14.0 0.00 0.00 0.00 56 989.8
20260504223432 80 164 10.0 18.0 0.00 0.00 0.00 57 989.8
20260504222932 80 195 4.0 13.0 0.00 0.00 0.00 57 989.8
20260504222431 80 152 5.0 11.0 0.00 0.00 0.00 56 989.8
20260504221932 80 133 4.0 15.0 0.00 0.00 0.00 56 989.8
20260504221433 80 179 4.0 15.0 0.00 0.00 0.00 57 989.8
20260504220932 80 158 8.0 12.0 0.00 0.00 0.00 57 989.8
20260504220432 80 173 7.0 12.0 0.00 0.00 0.00 57 990.2
20260504215931 80 208 8.0 9.0 0.00 0.00 0.00 56 990.2
20260504215432 80 151 6.0 11.0 0.00 0.00 0.00 56 990.2
20260504214931 80 169 4.0 14.0 0.00 0.00 0.00 56 990.2
20260504214435 80 166 9.0 14.0 0.00 0.00 0.00 57 990.2
20260504213931 79 185 7.0 14.0 0.00 0.00 0.00 56 990.5